RCH32 LCPH-LLBG

Flight info

Callsign RCH32
Flight time N/A
Altitude 35000
Route ESERI M42 ANANE Z89 IDAKU L35 PIKOG L609 ZUKKO
Aircraft K35R/H-SDFGHRWY/C

Departure

Time 2026-04-23 19:27
Airport Paphos International Airport (LCPH)

Arrival

Time N/A
Airport Ben Gurion International Airport (LLBG)
Time Latitude Longitude Altitude Speed Heading
2026-04-23 19:17 34.71400 32.48996 36 ft 0 kts 200°
2026-04-23 19:21 34.71389 32.48998 36 ft 2 kts 153°
2026-04-23 19:21 34.71384 32.49020 36 ft 4 kts 74°
2026-04-23 19:22 34.71420 32.49064 36 ft 11 kts 19°
2026-04-23 19:22 34.71473 32.49071 36 ft 4 kts 330°
2026-04-23 19:22 34.71516 32.48963 36 ft 13 kts 319°
2026-04-23 19:23 34.71563 32.48961 37 ft 9 kts 24°
2026-04-23 19:23 34.71628 32.48999 38 ft 6 kts 40°
2026-04-23 19:23 34.71644 32.49034 38 ft 0 kts 83°
2026-04-23 19:24 34.71594 32.49214 36 ft 20 kts 107°
2026-04-23 19:24 34.71542 32.49378 33 ft 22 kts 109°
2026-04-23 19:24 34.71436 32.49729 31 ft 10 kts 120°
2026-04-23 19:25 34.71369 32.49788 32 ft 8 kts 116°
2026-04-23 19:25 34.71388 32.49849 32 ft 3 kts 348°
2026-04-23 19:26 34.71601 32.49189 37 ft 131 kts 288°
2026-04-23 19:26 34.71998 32.47862 324 ft 191 kts 292°
2026-04-23 19:27 34.72865 32.44789 2184 ft 154 kts 287°
2026-04-23 19:27 34.73512 32.41227 1796 ft 141 kts 273°
2026-04-23 19:28 34.73313 32.38710 2168 ft 151 kts 255°
2026-04-23 19:28 34.72628 32.35689 1599 ft 206 kts 253°
2026-04-23 19:29 34.71895 32.34249 2061 ft 203 kts 223°
2026-04-23 19:29 34.69367 32.32524 2745 ft 213 kts 203°